Temperature
27 25 24 25 26 26 26 26 26 26 28 26 25 24 24 24 24 24 23 23 23 22 22 22 22 22 22 22 21 21 21 21 20 20 20 20 19 19 19 19 19 19 19 19
25 25 26 27 27 28 27 26 26 26 27 26 25 24 24 24 24 24 24 23 23 22 22 22 22 22 22 22 21 21 21 21 20 20 20 19 19 19 19 19 19 19 19 19
25 26 28 28 28 28 27 26 26 26 26 26 25 24 24 24 24 24 24 24 23 23 22 22 22 22 22 22 22 21 21 21 21 20 20 19 19 19 19 19 19 19 19 19
26 27 28 28 27 28 26 28 28 27 25 23 24 22 23 23 23 23 23 23 23 23 23 22 22 22 22 22 22 21 21 21 20 20 20 20 19 19 19 19 18 18 18 18
26 27 28 28 28 29 27 28 27 27 25 23 23 22 22 22 23 23 23 23 23 23 23 23 22 22 22 22 22 21 21 21 20 20 20 19 19 19 19 18 18 18 18 18
26 28 28 28 29 29 28 27 25 23 22 22 23 22 22 22 23 23 23 23 23 23 23 23 22 22 22 22 21 21 21 21 20 20 20 19 19 19 19 18 18 18 18 18
26 27 28 29 28 28 27 24 23 23 21 22 22 22 22 23 24 24 23 23 23 23 23 22 22 22 22 22 21 21 21 20 20 20 20 19 19 19 19 18 18 18 18 18
25 25 27 29 28 27 26 24 23 23 22 22 22 22 23 24 24 25 24 24 23 23 23 22 22 22 22 22 21 21 21 20 20 20 19 19 19 19 18 18 18 18 18 18
24 25 27 29 29 28 26 24 23 22 22 22 22 22 23 24 23 23 23 24 23 23 23 22 22 22 22 22 21 21 20 20 20 19 19 19 19 18 18 18 18 18 18 18
25 25 26 28 29 28 27 25 22 22 22 22 23 23 22 23 23 23 23 23 23 23 23 22 22 22 22 22 21 21 20 20 19 19 19 18 18 18 18 18 18 18 17 17
24 24 25 26 27 27 26 25 23 20 21 21 22 22 24 23 23 22 22 23 23 23 23 22 22 22 22 21 21 21 20 20 19 19 19 18 18 18 18 17 17 17 17 17
24 22 23 25 26 27 26 25 22 22 22 21 21 22 25 23 23 23 23 23 23 23 23 22 22 21 21 21 20 20 20 20 19 19 18 18 18 17 17 17 17 17 17 17
24 22 22 23 24 25 26 25 24 21 20 20 21 23 24 23 23 23 23 22 22 22 22 22 22 21 21 21 20 20 20 19 19 18 18 18 17 17 17 17 17 17 17 17
24 21 22 23 23 24 25 25 25 22 21 21 22 23 22 22 22 22 22 22 22 22 22 22 21 21 21 20 20 20 19 19 19 18 18 18 17 17 17 17 17 17 16 16
22 22 23 23 24 26 26 25 25 24 23 22 23 23 23 22 22 22 22 22 21 21 21 21 21 20 20 20 20 19 19 19 19 18 18 17 17 17 17 16 16 16 16 16
20 22 23 23 25 25 25 25 25 25 25 24 23 23 22 22 22 22 21 21 21 20 21 21 20 20 20 20 19 19 19 18 18 18 18 17 17 17 16 16 16 16 16 16
20 21 21 21 23 24 24 24 25 24 24 24 23 22 21 21 21 21 21 21 21 20 20 20 20 20 20 19 19 19 19 18 18 17 17 17 17 16 16 16 15 15 15 15
20 19 18 20 22 23 22 23 25 24 23 23 22 21 21 21 21 22 22 21 21 21 20 20 20 20 20 19 19 19 18 18 18 17 17 17 16 16 16 15 15 15 15 15
19 19 18 18 20 21 23 24 24 23 22 22 21 21 21 21 21 20 21 22 21 21 21 20 20 20 19 19 19 18 18 18 17 17 17 16 16 16 15 15 15 15 15 15
19 18 18 19 21 21 22 23 24 23 21 21 21 20 20 21 18 18 20 21 21 20 20 20 20 19 19 19 18 18 18 17 17 17 16 16 16 16 15 15 15 15 14 14
19 18 18 18 19 20 21 23 23 21 20 21 21 21 21 19 19 20 20 20 20 20 20 20 19 19 19 18 18 17 17 17 17 16 16 16 16 15 15 15 14 14 14 14
18 17 17 17 18 19 20 21 20 19 20 20 21 21 21 20 20 20 20 20 20 19 19 19 19 18 18 18 17 17 17 17 16 16 16 15 15 15 14 14 14 14 14 13
17 17 16 17 17 18 20 20 20 21 20 20 20 20 20 20 19 19 19 19 19 19 19 18 18 18 17 17 17 17 16 16 16 15 15 15 14 14 14 14 14 13 13 13
17 17 16 16 17 18 19 19 20 20 20 20 20 20 20 19 19 18 18 18 18 18 18 18 17 17 17 16 16 16 16 15 15 15 15 14 14 14 14 13 13 13 13 12
16 16 16 16 16 17 18 19 19 19 19 19 19 19 19 18 18 18 18 18 18 17 17 17 17 16 16 16 16 15 15 15 14 14 14 14 13 13 13 13 13 13 12 12
15 15 15 15 16 15 17 18 18 19 18 18 18 18 18 18 18 17 17 17 17 16 16 16 16 16 15 15 15 14 14 14 14 14 14 13 13 13 13 12 12 12 12 12
Wind_Speed
2 2 4 8 7 7 5 3 3 5 3 2 4 5 5 6 7 8 7 8 9 9 8 7 8 9 8 7 6 5 5 4 4 3 3 3 2 2 2 2 3 4 4 4
4 5 9 7 6 4 4 2 3 4 1 2 3 2 3 5 8 9 9 9 9 9 8 7 7 8 8 7 6 6 5 4 4 3 3 2 2 1 2 2 2 3 3 3
7 9 6 5 5 3 3 4 4 3 2 4 4 2 3 4 4 6 8 9 10 12 12 10 9 8 8 8 7 7 5 5 4 4 4 3 3 3 3 2 2 2 3 3
6 8 5 4 5 4 5 5 4 3 2 1 2 1 5 4 4 5 5 7 9 10 11 10 9 8 8 8 7 7 6 5 4 5 5 5 4 2 1 1 1 2 2 2
6 5 5 6 8 5 6 4 2 2 2 1 1 2 5 2 4 6 7 8 8 10 12 12 11 9 8 7 7 6 6 5 4 5 6 5 4 2 1 2 2 2 2 2
8 7 6 8 6 4 3 2 5 5 5 1 3 3 5 5 7 7 8 9 9 10 11 10 9 8 7 7 6 6 6 4 4 5 5 5 5 4 3 2 2 1 1 1
7 8 6 4 2 3 2 5 4 5 4 3 3 2 7 7 6 8 9 9 9 10 11 10 10 9 8 8 7 7 7 5 4 5 4 4 5 4 4 3 2 1 1 1
3 7 6 4 6 6 3 8 7 4 4 3 2 3 6 4 3 6 7 8 9 10 10 10 11 10 9 9 8 7 7 5 4 4 4 3 4 3 3 3 2 2 1 1
5 7 6 6 5 7 4 4 8 7 2 1 2 3 5 2 1 3 7 8 10 11 11 11 10 10 10 10 8 8 7 5 4 4 4 3 3 3 3 2 2 2 1 1
7 5 7 5 2 1 7 7 6 5 3 1 2 3 5 6 6 5 7 8 9 10 10 10 9 9 9 9 8 7 6 5 4 4 3 3 2 2 3 3 2 2 1 2
6 4 6 3 2 4 1 2 5 5 5 6 4 6 7 12 10 9 9 9 10 11 11 10 9 8 8 7 7 7 6 5 4 4 4 3 3 3 3 2 2 2 2 2
3 5 3 6 5 4 5 5 6 4 4 5 5 7 5 9 8 10 11 9 9 9 10 10 10 9 8 8 7 7 6 6 5 5 5 4 3 3 3 2 1 2 2 2
3 5 2 8 7 6 2 1 3 5 4 4 4 6 1 4 4 8 11 10 9 9 9 9 9 9 9 9 8 7 7 6 6 5 5 4 3 3 2 2 1 1 2 1
5 4 6 7 7 3 2 2 1 4 3 4 6 5 2 4 6 7 9 10 10 9 10 9 8 8 8 8 7 7 7 6 6 5 5 4 3 3 2 2 1 1 1 1
5 3 2 4 4 1 1 2 2 2 5 6 7 7 8 8 9 10 10 11 11 11 10 10 9 7 7 7 6 7 6 6 6 5 5 4 3 3 2 1 1 1 1 1
4 3 2 3 3 3 2 2 1 2 1 2 3 2 3 4 6 8 9 11 10 10 10 10 9 8 8 7 7 6 6 6 6 6 5 4 3 3 2 2 1 1 0 0
2 4 3 2 4 4 3 3 2 1 2 3 4 4 5 5 7 8 9 9 9 9 9 9 9 9 8 8 8 7 6 5 6 5 4 4 4 3 2 2 2 1 1 0
4 4 3 1 3 3 7 3 2 3 2 2 4 4 7 7 5 5 6 7 7 8 8 8 8 7 7 6 6 5 5 6 5 4 4 4 4 3 2 2 2 2 1 1
5 6 4 3 2 5 6 4 1 3 2 2 6 6 6 8 7 4 2 4 6 7 7 7 7 7 7 7 7 6 5 5 4 4 4 4 4 4 3 3 3 2 2 2
4 6 5 3 3 5 5 6 3 5 2 2 5 6 5 6 4 2 1 4 5 5 5 6 6 6 6 6 6 7 5 5 4 4 4 3 3 4 4 4 3 2 1 2
3 3 3 3 3 5 6 6 4 3 5 2 3 5 3 3 5 5 4 5 5 5 6 6 7 6 5 5 7 6 4 4 4 3 3 3 2 3 3 2 2 1 1 1
2 1 2 3 2 5 5 4 3 4 2 3 4 4 5 5 5 5 6 6 6 6 5 6 6 5 4 5 6 5 3 2 2 2 2 1 1 1 2 2 1 1 1 1
1 4 4 5 5 4 2 2 2 4 5 3 2 3 6 7 6 6 5 5 5 5 5 5 6 5 4 3 5 5 2 2 3 3 2 1 1 1 1 2 2 1 1 1
4 2 2 2 1 2 3 4 4 5 5 4 4 4 6 6 6 6 5 5 5 5 5 6 7 6 4 2 3 3 2 3 3 2 2 1 1 1 0 1 1 2 2 2
3 2 2 1 1 3 5 4 5 6 6 7 6 6 5 7 6 6 6 5 5 5 4 5 6 5 3 3 3 2 2 4 3 2 1 1 1 1 0 1 1 2 3 4
2 2 3 4 4 2 2 1 4 6 5 5 5 5 4 5 6 6 5 5 5 5 4 4 5 4 3 3 2 2 2 3 3 2 1 1 1 1 1 0 2 3 2 2
Wind_Direction
290 73 252 244 225 209 215 229 257 271 231 119 153 168 181 175 162 165 166 167 167 164 162 152 145 139 132 126 121 117 110 106 104 102 102 97 80 64 59 64 73 84 90 98
354 263 242 241 256 251 213 203 260 282 226 126 134 161 188 191 184 182 179 175 169 162 156 157 152 148 146 143 140 136 133 128 123 127 131 130 125 106 99 65 64 86 95 104
222 249 253 250 262 265 249 205 221 236 22 67 91 360 227 222 203 187 179 173 171 170 168 169 162 158 151 152 156 151 150 142 135 128 113 100 78 59 51 50 47 45 82 95
246 252 258 255 255 222 255 239 208 190 114 256 131 219 262 220 212 190 182 176 177 171 167 166 164 162 162 166 162 153 151 142 140 134 127 126 123 128 156 147 91 58 60 77
250 252 251 250 243 217 230 236 207 170 118 57 7 134 273 224 196 203 192 181 175 171 167 167 167 169 166 161 156 149 142 138 137 135 139 134 129 140 131 98 84 61 40 55
253 254 223 226 244 217 209 38 26 52 70 9 255 167 260 233 203 188 182 178 176 169 162 160 158 153 151 150 145 143 136 136 139 139 138 139 141 141 126 114 103 72 31 30
295 285 259 229 256 305 89 83 32 360 14 260 255 188 244 237 199 177 175 175 171 164 160 157 154 152 154 152 151 146 140 140 140 133 139 147 151 151 151 155 153 141 82 31
256 287 261 225 197 202 196 138 154 202 225 266 313 230 262 245 185 162 158 161 159 159 162 161 162 160 157 154 151 152 151 153 154 146 145 137 136 143 149 158 160 159 166 180
199 254 273 250 219 164 171 178 170 148 153 112 288 302 324 39 82 142 147 150 160 165 162 161 162 159 158 158 161 162 159 157 159 156 148 136 135 136 137 131 137 145 153 132
176 245 281 278 4 332 164 161 98 112 153 213 264 233 216 209 200 183 163 155 159 165 161 163 162 163 164 165 164 157 155 157 158 152 154 146 138 127 119 110 113 121 116 105
163 185 296 343 198 224 182 118 116 128 156 159 212 254 214 196 191 180 176 165 162 166 162 156 156 161 156 150 151 150 151 144 142 145 136 122 117 111 96 99 119 121 100 101
173 140 255 271 263 192 157 172 145 152 233 179 177 255 233 182 182 169 160 153 154 155 153 150 151 154 150 149 152 151 150 146 144 138 132 132 131 120 108 105 131 129 121 111
120 108 46 337 342 8 57 181 165 145 131 158 170 253 275 147 150 156 153 151 151 143 139 143 148 150 154 157 158 157 155 153 148 142 135 130 131 132 135 139 136 123 116 101
110 110 158 198 229 251 303 303 97 121 152 204 212 213 220 173 161 155 152 153 148 142 143 147 151 153 153 153 156 156 157 156 152 146 142 142 148 152 156 155 138 126 127 120
93 118 200 226 234 143 314 282 258 220 199 190 214 192 205 197 176 164 153 148 146 153 153 156 157 155 151 152 156 155 156 159 157 151 152 164 164 156 151 145 143 130 145 158
69 117 59 332 327 15 350 330 289 280 232 174 145 212 210 158 143 143 146 146 157 162 160 156 153 152 156 158 158 157 159 163 156 158 171 175 166 164 169 170 156 138 110 8
61 101 82 287 314 14 316 240 217 273 311 159 169 204 153 123 143 155 154 154 160 159 155 158 161 164 164 162 160 165 167 158 157 164 171 175 173 174 183 180 155 164 187 172
145 117 132 170 27 234 244 255 172 118 39 77 124 136 139 138 144 135 134 148 156 154 155 159 160 160 160 157 157 155 151 152 156 162 171 178 175 179 182 180 195 208 203 200
156 144 132 135 194 267 295 328 25 132 23 22 112 113 112 108 85 60 75 132 150 154 159 163 164 161 157 158 154 140 143 150 156 171 186 193 185 186 191 201 215 217 201 217
66 105 125 143 174 225 258 299 321 93 30 342 111 122 134 107 110 216 163 114 117 124 136 145 142 134 142 152 146 140 147 155 174 190 195 196 190 193 199 204 207 205 194 221
10 39 125 165 207 246 272 304 27 119 226 262 134 141 136 140 176 178 141 118 117 125 132 133 130 132 146 150 143 143 148 175 194 184 171 174 180 192 194 202 200 186 198 238
177 163 189 158 188 250 302 21 114 198 188 112 109 124 116 116 125 127 127 125 125 127 126 127 126 123 119 127 132 135 155 178 146 132 128 140 159 176 158 159 188 195 186 196
160 190 191 183 205 254 316 116 158 135 109 98 99 120 121 117 121 120 122 126 127 134 125 115 116 109 97 106 127 138 161 133 108 105 112 95 86 101 136 160 185 191 187 210
319 6 84 68 331 330 33 56 81 102 106 104 100 107 115 121 129 124 126 122 114 111 115 116 113 111 107 98 105 127 139 126 115 124 134 133 123 114 52 179 191 201 209 214
276 354 42 43 298 19 29 47 73 78 77 76 72 80 100 118 124 125 123 123 123 117 113 119 123 125 123 107 94 97 120 122 116 120 138 136 144 162 185 275 248 219 220 211
240 177 171 221 221 181 235 340 70 93 96 96 88 67 69 112 131 125 124 129 129 128 123 122 124 126 124 112 100 82 89 114 124 131 175 186 188 191 182 169 352 353 319 293
Height
1493 1499 1504 1499 1496 1497 1500 1504 1507 1500 1492 1497 1501 1503 1501 1500 1501 1502 1504 1505 1507 1508 1510 1511 1512 1512 1512 1513 1514 1514 1514 1515 1515 1516 1516 1517 1517 1517 1518 1518 1518 1518 1518 1518
1499 1501 1492 1489 1490 1491 1495 1503 1504 1498 1491 1496 1503 1505 1501 1500 1500 1500 1502 1504 1506 1508 1510 1511 1512 1512 1512 1513 1513 1514 1515 1515 1516 1516 1517 1517 1518 1518 1519 1519 1519 1519 1519 1519
1501 1494 1486 1488 1490 1493 1496 1500 1500 1500 1496 1497 1504 1511 1505 1500 1500 1500 1501 1502 1505 1506 1507 1509 1511 1511 1512 1513 1514 1514 1515 1516 1516 1517 1517 1518 1518 1519 1519 1519 1519 1520 1520 1519
1493 1485 1486 1488 1490 1490 1499 1487 1489 1494 1505 1515 1509 1528 1510 1502 1501 1499 1500 1501 1503 1504 1506 1508 1509 1511 1512 1512 1513 1514 1515 1516 1516 1517 1517 1517 1518 1518 1519 1519 1520 1520 1520 1520
1492 1484 1485 1488 1484 1483 1487 1481 1486 1491 1503 1514 1512 1523 1515 1503 1503 1500 1498 1499 1500 1502 1504 1506 1508 1510 1511 1512 1513 1514 1515 1515 1516 1517 1518 1518 1518 1519 1519 1520 1520 1520 1520 1520
1483 1478 1478 1478 1475 1476 1478 1485 1491 1499 1510 1527 1517 1522 1520 1505 1498 1495 1494 1496 1497 1500 1503 1505 1507 1509 1511 1512 1513 1514 1515 1515 1516 1517 1518 1518 1518 1519 1519 1520 1519 1519 1520 1519
1489 1479 1473 1472 1477 1478 1481 1502 1524 1527 1535 1532 1514 1517 1513 1493 1489 1489 1491 1493 1496 1499 1501 1504 1506 1508 1509 1511 1512 1513 1514 1515 1516 1517 1517 1518 1518 1519 1519 1519 1519 1519 1519 1518
1501 1497 1476 1470 1475 1482 1484 1498 1524 1536 1538 1531 1516 1518 1502 1487 1485 1485 1488 1490 1494 1497 1500 1502 1504 1506 1508 1510 1511 1513 1514 1515 1516 1516 1517 1517 1518 1518 1518 1518 1518 1518 1518 1517
1497 1494 1471 1467 1466 1472 1485 1492 1495 1515 1522 1531 1523 1511 1497 1486 1487 1486 1487 1489 1492 1495 1498 1501 1503 1505 1507 1509 1510 1511 1513 1514 1515 1516 1516 1517 1517 1517 1518 1518 1517 1517 1517 1517
1482 1490 1475 1467 1466 1468 1473 1482 1499 1514 1530 1536 1525 1517 1510 1495 1490 1488 1488 1489 1491 1494 1497 1500 1502 1504 1506 1508 1509 1511 1512 1514 1515 1515 1516 1516 1517 1517 1517 1517 1516 1516 1516 1516
1474 1488 1483 1474 1476 1478 1478 1483 1494 1509 1515 1529 1534 1519 1486 1485 1483 1486 1487 1487 1490 1493 1495 1498 1500 1503 1505 1507 1509 1510 1511 1513 1513 1514 1515 1515 1515 1516 1516 1516 1516 1515 1515 1515
1472 1485 1493 1482 1469 1465 1472 1480 1491 1508 1511 1514 1521 1511 1474 1477 1478 1480 1483 1486 1489 1491 1493 1496 1499 1501 1504 1506 1507 1509 1510 1511 1512 1513 1514 1514 1514 1515 1515 1515 1515 1514 1514 1514
1470 1486 1502 1497 1487 1475 1475 1476 1481 1492 1503 1512 1517 1504 1475 1475 1477 1479 1482 1485 1488 1490 1493 1496 1498 1500 1502 1504 1506 1507 1509 1510 1511 1512 1512 1513 1513 1513 1513 1513 1513 1513 1513 1513
1464 1483 1496 1503 1496 1483 1481 1477 1477 1488 1504 1506 1500 1493 1482 1478 1478 1480 1482 1484 1486 1489 1492 1495 1497 1499 1501 1503 1504 1506 1507 1508 1509 1510 1511 1511 1511 1512 1512 1512 1512 1512 1512 1511
1466 1482 1481 1480 1475 1473 1475 1476 1476 1481 1486 1493 1488 1485 1479 1474 1475 1477 1480 1483 1486 1489 1491 1493 1495 1498 1500 1502 1503 1504 1506 1507 1508 1509 1509 1509 1510 1510 1511 1510 1510 1510 1510 1509
1469 1479 1480 1480 1472 1472 1476 1473 1473 1473 1474 1477 1478 1480 1472 1472 1474 1477 1479 1482 1485 1487 1489 1492 1494 1496 1498 1500 1502 1503 1504 1505 1506 1507 1507 1508 1508 1509 1509 1509 1509 1509 1508 1507
1474 1480 1489 1492 1479 1478 1486 1476 1473 1474 1472 1473 1479 1477 1472 1473 1474 1476 1478 1480 1483 1485 1487 1489 1491 1494 1496 1498 1500 1502 1503 1504 1504 1505 1505 1506 1506 1506 1507 1507 1507 1506 1506 1505
1474 1482 1491 1494 1489 1499 1484 1466 1466 1469 1471 1469 1469 1470 1470 1471 1473 1476 1478 1479 1481 1483 1486 1488 1490 1492 1494 1496 1498 1500 1501 1502 1503 1503 1503 1504 1504 1504 1504 1505 1504 1504 1504 1503
1465 1477 1489 1498 1500 1492 1476 1466 1467 1471 1476 1470 1470 1471 1472 1473 1475 1479 1479 1480 1480 1482 1485 1487 1489 1491 1493 1494 1496 1497 1499 1500 1500 1501 1501 1502 1502 1502 1502 1502 1502 1501 1501 1500
1466 1471 1486 1494 1497 1499 1483 1466 1461 1467 1481 1472 1470 1472 1473 1473 1481 1482 1479 1480 1481 1483 1484 1486 1487 1489 1491 1493 1494 1495 1496 1497 1498 1498 1499 1499 1499 1499 1499 1499 1499 1498 1498 1497
1479 1482 1487 1493 1495 1488 1473 1466 1463 1482 1483 1472 1471 1471 1472 1473 1476 1477 1478 1479 1481 1482 1483 1485 1486 1488 1489 1491 1492 1493 1494 1495 1496 1496 1497 1496 1496 1496 1496 1496 1496 1495 1495 1494
1484 1488 1489 1492 1496 1492 1470 1467 1472 1475 1471 1471 1471 1471 1472 1473 1474 1476 1477 1478 1479 1481 1482 1484 1485 1486 1488 1490 1491 1491 1492 1493 1494 1494 1494 1493 1493 1493 1493 1493 1493 1492 1492 1491
1480 1481 1481 1483 1484 1474 1469 1469 1470 1469 1470 1471 1471 1472 1472 1473 1475 1476 1477 1478 1479 1480 1482 1483 1484 1485 1487 1488 1489 1489 1490 1491 1491 1491 1491 1491 1491 1491 1491 1490 1490 1489 1488 1488
1476 1473 1476 1478 1476 1473 1471 1469 1469 1470 1470 1471 1471 1472 1472 1473 1475 1476 1477 1478 1479 1480 1481 1482 1483 1484 1485 1486 1487 1487 1488 1489 1489 1489 1488 1489 1489 1488 1488 1488 1487 1486 1485 1485
1478 1476 1477 1478 1476 1473 1472 1471 1471 1471 1471 1471 1472 1473 1473 1474 1475 1475 1476 1477 1478 1479 1480 1482 1482 1483 1484 1485 1485 1486 1486 1486 1486 1486 1486 1486 1487 1486 1486 1485 1485 1484 1483 1482
1475 1476 1478 1479 1475 1474 1474 1473 1472 1472 1472 1472 1473 1473 1474 1474 1475 1475 1476 1477 1478 1479 1480 1481 1482 1482 1482 1483 1484 1484 1484 1484 1484 1484 1484 1484 1484 1484 1483 1483 1482 1482 1481 1480